Regional Weather Roundup
Issued by NWS

Home | Current Version | Previous Version | Text Only | Print | Product List | Glossary On
Versions: 1 2 3 4 5 6 7 8 9 10 11 12 13 14 15 16 17 18 19 20 21 22 23 24 25 26 27 28 29 30 31 32 33 34 35 36 37 38 39 40 41 42 43 44 45 46 47 48 49 50
000
ASUS43 KMPX 262210
RWRMN
WEATHER ROUNDUP FOR MINNESOTA
NATIONAL WEATHER SERVICE TWIN CITIES/CHANHASSEN MN
400 PM CST THU FEB 26 2015


NOTE: "FAIR" INDICATES FEW OR NO CLOUDS BELOW 12,000 FEET WITH NO
SIGNIFICANT WEATHER AND/OR OBSTRUCTIONS TO VISIBILITY. N/A MEANS
CURRENT SKY AND/OR WEATHER CONDITIONS ARE NOT AVAILABLE.

MNZ060>063-068>070-262300-
   Twin Cities Metro

CITY           SKY/WX    TMP DP  RH WIND       PRES   REMARKS
TWIN CITIES    MOSUNNY   10  -7  46 NW10      30.43S WCI  -4
ST PAUL        SUNNY     11  -8  42 N10       30.45S WCI  -3
CRYSTAL        MOSUNNY   10  -6  48 W12       30.43S WCI  -5
BLAINE         MOSUNNY   12  -6  44 NW12      30.42S WCI  -2
EDEN PRAIRIE   SUNNY     10  -6  48 NW10      30.43S WCI  -4
SOUTH ST PAUL  SUNNY     11  -6  46 W8        30.43S WCI  -1
LAKE ELMO      FAIR      10  -4  52 NW8       30.42S WCI  -1
$$
MNZ001>005-007-008-013>017-022>024-027-028-262300-
   Northwest Minnesota

CITY           SKY/WX    TMP DP  RH WIND       PRES   REMARKS
BEMIDJI        SUNNY      2 -10  56 W9        30.42R WCI -13
HALLOCK        SUNNY      7  -6  56 NW12G17   30.51S WCI  -9
ROSEAU         SUNNY      7  -6  56 W12       30.44S WCI  -9
WARROAD        MOSUNNY    7  -8  51 W15       30.42S WCI -11
THIEF RVR FALL SUNNY      3  -4  72 NW12      30.48S WCI -13
CROOKSTON      SUNNY      7  -2  66 N10       30.53S WCI  -8
FOSSTON        SUNNY      3  -9  55 W8        30.47S WCI -10
DETROIT LAKES  SUNNY      3  -4  72 NW15      30.46F WCI -15
MOORHEAD       SUNNY      7  -2  66 N13       30.53F WCI  -9
PARK RAPIDS    SUNNY      5  -9  52 W15       30.40S WCI -13
MAHNOMEN       FAIR       3  -6  67 NW9       30.48S WCI -12
$$
MNZ006-009>011-018-025>026-262300-
   North Central Minnesota

CITY           SKY/WX    TMP DP  RH WIND       PRES   REMARKS
BAUDETTE       SUNNY      5 -11  47 W8        30.39F WCI  -8
FLAG ISLAND    SUNNY      3  -6  66 CALM      30.38F
INTL FALLS     SUNNY      3 -14  45 W9        30.38S WCI -12
WASKISH        SUNNY      3  -9  55 SW8       30.41F WCI -10
BIG FORK       SUNNY      9 -13  37 NW3       30.37F
LONGVILLE      SUNNY      3 -11  51 NW7       30.40F WCI  -9
GRAND RAPIDS   SUNNY      3  -9  55 W13       30.35F WCI -14
CRANE LAKE     SUNNY      3 -15  43 NW5       30.38S WCI  -6
ORR            SUNNY      5 -15  39 NW10      30.33S WCI -10
COOK           SUNNY      7 -11  43 W14       30.34S WCI -10
WALKER         FAIR       4 -12  47 NW6       30.41S WCI  -7
$$
MNZ012-019>021-037-262300-
   Northeast Minnesota

CITY           SKY/WX    TMP DP  RH WIND       PRES   REMARKS
DULUTH         SUNNY      8 -11  41 NW12      30.31S WCI  -7
ELY            SUNNY      7 -15  36 W8G16     30.30S WCI  -6
HIBBING        SUNNY      6 -10  47 NW13      30.34F WCI -10
EVELETH        SUNNY      9  -9  43 NW8       30.34S WCI  -4
DULUTH HARBOR  SUNNY     10  -8  44 CALM      30.41S
TWO HARBORS    SUNNY     12  -8  40 NW6       30.31S WCI   3
SILVER BAY     SUNNY     12 -11  34 W7        30.30S WCI   2
GRAND MARAIS     N/A     12  -8  40 NW7G17    30.33S WCI   1
G MARAIS ARPRT SUNNY      3 -15  43 W10       30.21R WCI -12
$$
MNZ029>031-032-039>041-046>048-054>057-064-262300-
   West Central Minnesota

CITY           SKY/WX    TMP DP  RH WIND       PRES   REMARKS
FERGUS FALLS   MOSUNNY    3  -8  60 NW14G20   30.53S WCI -15
WHEATON        SUNNY      1  -8  66 NW14G22   30.54F WCI -17
MORRIS         MOSUNNY    5  -4  66 NW16      30.48S WCI -14
ALEXANDRIA     SUNNY      3  -9  57 NW15      30.43S WCI -16
ELBOW LAKE     FAIR       3  -6  65 N15       30.47S WCI -15
WADENA         SUNNY      3  -9  55 NW12      30.42S WCI -13
GLENWOOD       SUNNY      3  -8  60 NW14G22   30.44S WCI -15
APPLETON       SUNNY      5  -6  61 NW15      30.52S WCI -13
BENSON         PTSUNNY    7  -6  56 N17       30.48F WCI -12
ORTONVILLE     PTSUNNY    3  -8  60 NW12      30.52S WCI -13
MADISON        MOSUNNY    3  -6  66 N14       30.52F HAZE    WCI -15
WILLMAR        FAIR       3  -6  66 NW14G21   30.48S WCI -15
$$
MNZ033>034-036-042>043-049>051-058-059-262300-
   Central Minnesota

CITY           SKY/WX    TMP DP  RH WIND       PRES   REMARKS
ST CLOUD       SUNNY      7  -8  50 NW10      30.43S WCI  -8
SAUK CENTRE    FAIR       4  -8  57 NW12      30.44R WCI -12
PAYNESVILLE    PTSUNNY    3  -7  62 W15       30.45S WCI -15
AITKIN         SUNNY     10 -11  37 NW7       30.38S WCI   0
PINE RIVER     SUNNY      7  -9  47 W5        30.42F WCI  -2
BRAINERD       SUNNY      6 -11  45 NW12      30.41S WCI  -9
STAPLES        SUNNY      5  -9  51 NW12      30.41F WCI -11
LONG PRAIRIE   FAIR       5  -8  56 NW10G17   30.43R WCI -10
LITTLE FALLS   SUNNY      9  -9  43 W8        30.43S WCI  -4
LITCHFIELD     SUNNY      7  -4  61 NW12G17   30.45S WCI  -9
BUFFALO        SUNNY      9  -6  52 NW6       30.45S WCI  -1
MAPLE LAKE     SUNNY     10  -5  52 W8        30.44S WCI  -2
$$
MNZ037-044-045-052-053-262300-
   East Central Minnesota

CITY           SKY/WX    TMP DP  RH WIND       PRES   REMARKS
PRINCETON      SUNNY      9  -6  52 W12       30.42S WCI  -6
MORA           SUNNY      9  -8  47 N10       30.43S WCI  -6
CAMBRIDGE      SUNNY     10  -6  48 W7        30.41R WCI   0
RUSH CITY      SUNNY      9  -8  47 NW7       30.42S WCI  -2
MOOSE LAKE     SUNNY     10  -9  40 CALM      30.37S
HINCKLEY       FAIR      10  -8  44 NW6       30.40S WCI   1
CLOQUET        SUNNY      7 -13  40 W7        30.34S WCI  -5
MCGREGOR       SUNNY      9  -8  47 W7G16     30.38S WCI  -3
$$
MNZ071>073-080-081-089-090-097-098-262300-
   Southwest Minnesota

CITY           SKY/WX    TMP DP  RH WIND       PRES   REMARKS
MONTEVIDEO     PTSUNNY    3  -6  66 N15       30.52S HAZE    WCI -15
GRANITE FALLS  PTSUNNY    3  -6  66 NW15      30.53R WCI -16
CANBY          CLOUDY     3  -5  68 N13       30.52S HAZE    WCI -14
MARSHALL       PTSUNNY    1  -8  66 N17       30.50S WCI -19
REDWOOD FALLS  CLOUDY     3  -6  66 NW10G20   30.49S HAZE    WCI -12
OLIVIA         MOSUNNY    3  -6  66 NW14      30.48S WCI -15
PIPESTONE      SUNNY      3  -6  66 NW17G23   30.44R WCI -17
WINDOM         MOSUNNY    1  -8  66 NW18      30.45R WCI -19
WORTHINGTON    PTSUNNY   25  -8  24 NW16      30.45S WCI  12
JACKSON        PTSUNNY    5  -6  61 N14G22    30.44S HAZE    WCI -12
TRACY          CLOUDY     3  -5  69 NW17      30.48S HAZE    WCI -17
SLAYTON        MOSUNNY    2  -9  61 NW13G20   30.45S WCI -15
$$
MNZ065>067-074>077-082>085-091>093-262300-
   South Central Minnesota

CITY           SKY/WX    TMP DP  RH WIND       PRES   REMARKS
MANKATO        CLOUDY     5  -6  61 NW14G20   30.45R WCI -12
NEW ULM        SUNNY      3  -8  60 NW18      30.47R WCI -17
ST JAMES       CLOUDY     3  -2  78 NW15      30.48S HAZE    WCI -15
FAIRMONT       CLOUDY     3  -6  66 NW17      30.43S WCI -17
GLENCOE        MOSUNNY    7  -1  68 W14       30.45S WCI  -9
FARIBAULT      SUNNY      7  -6  56 W12       30.43R WCI  -9
OWATONNA       SUNNY      5  -8  56 NW14      30.41S WCI -12
WASECA         SUNNY      5  -6  61 NW13      30.44S WCI -12
ALBERT LEA     SUNNY      3  -6  66 NW8       30.41R WCI -10
$$
MNZ078>079-086>088-094>096-262300-
   Southeast Minnesota

CITY           SKY/WX    TMP DP  RH WIND       PRES   REMARKS
ROCHESTER      SUNNY      5  -6  60 NW15      30.37S WCI -13
RED WING       SUNNY     10  -9  40 NW3       30.42S
STANTON        SUNNY     10  -6  48 NW10      30.41S WCI  -4
DODGE CENTER   SUNNY      5  -6  61 NW13      30.37S WCI -12
WINONA         MOSUNNY   12  -2  52 NW10      30.42R WCI  -1
AUSTIN         SUNNY      3  -8  60 NW15      30.40R WCI -15
PRESTON        MOSUNNY    5  -7  57 NW13      30.37R WCI -12
$$
ABBREVIATIONS USED IN REMARKS
   TC - TEMPERATURES IN CELSIUS
  WCI - WIND CHILL INDEX
   HX - HEAT INDEX
  VSB - VISIBILITY
$$



USA.gov is the U.S. government's official web portal to all federal, state and local government web resources and services.